Regional Weather Roundup
Issued by NWS

Home | Current Version | Previous Version | Graphics & Text | Print | Product List | Glossary On
Versions: 1 2 3 4 5 6 7 8 9 10 11 12 13 14 15 16 17 18 19 20 21 22 23 24 25 26 27 28 29 30 31 32 33 34 35 36 37 38 39 40 41 42 43 44 45 46 47 48 49 50
000
ASUS43 KLSX 210759
RWRMO

WEATHER SUMMARY FOR MISSOURI
NATIONAL WEATHER SERVICE SPRINGFIELD MO
300 AM CDT THU AUG 21 2014

NOTE: "FAIR" INDICATES FEW OR NO CLOUDS BELOW 12,000 FEET WITH NO
       SIGNIFICANT WEATHER AND/OR OBSTRUCTIONS TO VISIBILITY.
       CURRENT SKY AND/OR WEATHER CONDITIONS ARE NOT AVAILABLE FOR
       CHILLICOTHE AND FARMINGTON.

MOZ001>031-035>038-043-044-053-054-210900-
...NORTHERN AND WESTERN MISSOURI...

CITY           SKY/WX    TMP DP  RH WIND       PRES   REMARKS
KANSAS CTY INT PTCLDY    80  68  66 S16       29.89S
KANSAS C DTWN  PTCLDY    82  67  60 S16G23    29.88F
LEE`S SUMMIT   CLEAR     77  66  68 S12G20    29.91F
ST JOSEPH      PTCLDY    79  69  71 S12       29.86S

$$
MOZ066>068-077>081-088>096-101>105-210900-
...SOUTHWEST MISSOURI...

CITY           SKY/WX    TMP DP  RH WIND       PRES   REMARKS
SPRINGFIELD    CLEAR     75  67  76 S9        29.99S
JOPLIN         CLEAR     78  68  71 S13       29.96F

$$
MOZ032>034-039>042-045>050-055>058-069>072-210900-
...CENTRAL MISSOURI...

CITY           SKY/WX    TMP DP  RH WIND       PRES   REMARKS
COLUMBIA       CLEAR     72  69  90 S6        29.96S
JEFFERSON CITY CLEAR     73  69  87 E3        29.95S
ROLLA          CLOUDY    74  64  71 S9        29.99S
SEDALIA        CLEAR     78  65  63 S10       29.95S
OSAGE BEACH    CLEAR     72  64  78 S3        29.98S

$$
MOZ051-052-059>065-210900-
...EAST CENTRAL MISSOURI...

CITY           SKY/WX    TMP DP  RH WIND       PRES   REMARKS
ST LOUIS INTL  PTCLDY    78  73  84 SW6       29.97S
SPIRIT OF STL  CLEAR     71  70  96 CALM      29.95S FOG
ST CHARLES     CLEAR     71  69  93 NE3       29.95S

$$
MOZ072>076-082>087-097>100-106>115-210900-
...SOUTH CENTRAL AND SOUTHEAST MISSOURI...

CITY           SKY/WX    TMP DP  RH WIND       PRES   REMARKS
CAPE GIRARDEAU PTCLDY    77  73  87 S5        30.00S
FARMINGTON     CLOUDY    79  70  73 SW8       30.03R
POPLAR BLUFF   MOCLDY    76  71  85 CALM      29.99F
WEST PLAINS    CLEAR     74  67  78 SW3       30.05R

$$



USA.gov is the U.S. government's official web portal to all federal, state and local government web resources and services.